| time (UTC) | temp C | wind direction | speed KPH | gust KPH | rain 1hr cm | rain 24hr cm | rain mn cm | humidity % | barometer mb |
| 20260502160355 | 20 | 19 | 0.0 | 0.0 | 0.00 | 0.00 | 0.00 | 43 | 1013.7 |
| 20260502151837 | 20 | 19 | 0.0 | 0.0 | 0.00 | 0.00 | 0.00 | 41 | 1013.9 |
| 20260502130334 | 22 | 19 | 0.0 | 0.0 | 0.00 | 0.00 | 0.00 | 38 | 1013.5 |
| 20260502123328 | 22 | 19 | 0.0 | 0.0 | 0.00 | 0.00 | 0.00 | 36 | 1013.1 |
| 20260502121837 | 22 | 19 | 0.0 | 0.0 | 0.00 | 0.00 | 0.00 | 35 | 1013.0 |
| 20260502120341 | 23 | 19 | 0.0 | 0.0 | 0.00 | 0.00 | 0.00 | 33 | 1012.8 |
| 20260502114819 | 23 | 19 | 0.0 | 0.0 | 0.00 | 0.00 | 0.00 | 32 | 1012.6 |
| 20260502113326 | 23 | 19 | 0.0 | 0.0 | 0.00 | 0.00 | 0.00 | 31 | 1012.4 |
| 20260502111833 | 23 | 19 | 0.0 | 0.0 | 0.00 | 0.00 | 0.00 | 31 | 1011.9 |
| 20260502110319 | 23 | 19 | 0.0 | 0.0 | 0.00 | 0.00 | 0.00 | 31 | 1011.9 |
| 20260502104823 | 23 | 19 | 0.0 | 0.0 | 0.00 | 0.00 | 0.00 | 30 | 1011.4 |
| 20260502103355 | 23 | 19 | 0.0 | 0.0 | 0.00 | 0.00 | 0.00 | 31 | 1011.4 |
| 20260502101820 | 24 | 19 | 0.0 | 0.0 | 0.00 | 0.00 | 0.00 | 30 | 1011.3 |
| 20260502100327 | 24 | 5 | 0.0 | 0.0 | 0.00 | 0.00 | 0.00 | 29 | 1011.1 |
| 20260502090352 | 25 | 103 | 0.0 | 0.0 | 0.00 | 0.00 | 0.00 | 28 | 1010.3 |
| 20260502070338 | 27 | 188 | 0.0 | 1.6 | 0.00 | 0.00 | 0.00 | 32 | 1009.0 |
| 20260502064821 | 27 | 151 | 0.0 | 1.6 | 0.00 | 0.00 | 0.00 | 33 | 1008.7 |
| 20260502063328 | 28 | 74 | 0.0 | 1.6 | 0.00 | 0.00 | 0.00 | 31 | 1008.5 |
| 20260502061853 | 27 | 287 | 0.0 | 1.6 | 0.00 | 0.00 | 0.00 | 24 | 1008.2 |
| 20260502060339 | 28 | 294 | 0.0 | 1.6 | 0.00 | 0.00 | 0.00 | 24 | 1008.1 |
| 20260502054821 | 28 | 341 | 0.0 | 0.0 | 0.00 | 0.00 | 0.00 | 25 | 1007.9 |
| 20260502053326 | 28 | 103 | 0.0 | 1.6 | 0.00 | 0.00 | 0.00 | 25 | 1007.9 |
| 20260502051829 | 27 | 255 | 0.0 | 1.6 | 0.00 | 0.00 | 0.00 | 25 | 1007.7 |
| 20260502050335 | 27 | 346 | 0.0 | 1.6 | 0.00 | 0.00 | 0.00 | 24 | 1007.6 |
| 20260502044834 | 27 | 57 | 0.0 | 6.4 | 0.00 | 0.10 | 0.00 | 25 | 1007.5 |
| 20260502043341 | 27 | 339 | 0.0 | 12.9 | 0.00 | 0.10 | 0.00 | 25 | 1007.3 |
| 20260502041819 | 27 | 94 | 0.0 | 1.6 | 0.00 | 0.10 | 0.00 | 26 | 1007.2 |
| 20260502040346 | 26 | 114 | 0.0 | 0.0 | 0.00 | 0.10 | 0.00 | 26 | 1007.2 |
| 20260502034833 | 26 | 315 | 0.0 | 16.1 | 0.00 | 0.30 | 0.00 | 25 | 1007.1 |
| 20260502033321 | 26 | 279 | 0.0 | 16.1 | 0.00 | 0.30 | 0.00 | 27 | 1006.9 |
| 20260502031827 | 26 | 214 | 0.0 | 9.7 | 0.00 | 0.30 | 0.00 | 28 | 1006.7 |
| 20260502030352 | 26 | 24 | 0.0 | 0.0 | 0.00 | 0.30 | 0.00 | 29 | 1006.6 |
| 20260502024837 | 26 | 285 | 0.0 | 8.0 | 0.00 | 0.79 | 0.00 | 29 | 1006.4 |
| 20260502023318 | 26 | 320 | 0.0 | 16.1 | 0.00 | 0.79 | 0.00 | 29 | 1006.3 |
| 20260502021825 | 25 | 290 | 0.0 | 1.6 | 0.00 | 0.79 | 0.00 | 29 | 1006.2 |
| 20260502020352 | 25 | 240 | 0.0 | 16.1 | 0.00 | 0.79 | 0.00 | 29 | 1005.9 |
| 20260502014833 | 25 | 330 | 0.0 | 1.6 | 0.00 | 1.50 | 0.00 | 30 | 1005.7 |
| 20260502013339 | 25 | 331 | 0.0 | 19.3 | 0.00 | 1.50 | 0.00 | 31 | 1005.5 |
| 20260502011820 | 25 | 269 | 0.0 | 4.8 | 0.00 | 1.50 | 0.00 | 32 | 1005.6 |
| 20260502010322 | 24 | 113 | 0.0 | 0.0 | 0.00 | 1.50 | 0.00 | 37 | 1005.6 |
| 20260502004825 | 23 | 326 | 0.0 | 1.6 | 0.00 | 4.80 | 0.00 | 40 | 1005.6 |
| 20260502003347 | 23 | 167 | 0.0 | 0.0 | 0.00 | 4.80 | 0.00 | 42 | 1005.4 |
| 20260502001830 | 23 | 91 | 0.0 | 0.0 | 0.00 | 4.80 | 0.00 | 43 | 1005.3 |
| 20260502000334 | 22 | 95 | 0.0 | 0.0 | 0.00 | 4.80 | 0.00 | 43 | 1005.4 |
| 20260501234839 | 22 | 143 | 0.0 | 3.2 | 0.00 | 8.20 | 0.00 | 43 | 1005.3 |
| 20260501233317 | 22 | 266 | 0.0 | 0.0 | 0.00 | 8.20 | 0.00 | 42 | 1005.1 |
| 20260501231819 | 21 | 173 | 0.0 | 0.0 | 0.00 | 8.20 | 0.00 | 43 | 1004.7 |
| 20260501230328 | 21 | 153 | 0.0 | 1.6 | 0.00 | 8.20 | 0.00 | 46 | 1004.5 |
| 20260501224832 | 20 | 242 | 0.0 | 0.0 | 0.00 | 10.59 | 0.00 | 49 | 1004.3 |
| 20260501223335 | 19 | 193 | 0.0 | 0.0 | 0.00 | 10.59 | 0.00 | 51 | 1004.0 |
| 20260501221817 | 18 | 193 | 0.0 | 0.0 | 0.00 | 10.59 | 0.00 | 53 | 1003.8 |
| 20260501220317 | 17 | 283 | 0.0 | 0.0 | 0.00 | 10.59 | 0.00 | 54 | 1003.7 |
| 20260501214819 | 17 | 284 | 0.0 | 0.0 | 0.00 | 12.19 | 0.00 | 57 | 1003.4 |
| 20260501213322 | 16 | 282 | 0.0 | 1.6 | 0.00 | 12.19 | 0.00 | 58 | 1003.1 |
| 20260501211826 | 16 | 250 | 0.0 | 0.0 | 0.00 | 12.19 | 0.00 | 58 | 1002.7 |
| 20260501210332 | 17 | 281 | 0.0 | 0.0 | 0.00 | 12.19 | 0.00 | 59 | 1002.6 |
| 20260501204835 | 17 | 297 | 0.0 | 0.0 | 0.00 | 12.50 | 0.00 | 58 | 1002.3 |
| 20260501203401 | 17 | 308 | 0.0 | 3.2 | 0.00 | 12.50 | 0.00 | 58 | 1001.9 |
| 20260501201820 | 16 | 275 | 0.0 | 0.0 | 0.00 | 12.50 | 0.00 | 59 | 1001.6 |
| 20260501200344 | 16 | 249 | 0.0 | 0.0 | 0.00 | 12.50 | 0.00 | 62 | 1001.1 |
| 20260501194830 | 15 | 75 | 0.0 | 0.0 | 0.00 | 14.20 | 0.00 | 64 | 1000.8 |
| 20260501193359 | 15 | 309 | 0.0 | 0.0 | 0.00 | 14.20 | 0.00 | 66 | 1000.4 |
| 20260501191818 | 15 | 302 | 0.0 | 0.0 | 0.00 | 14.20 | 0.00 | 68 | 1000.1 |
| 20260501190323 | 15 | 172 | 0.0 | 0.0 | 0.00 | 14.20 | 0.00 | 69 | 999.7 |
| 20260501184850 | 15 | 163 | 0.0 | 0.0 | 0.00 | 15.60 | 0.00 | 69 | 999.2 |
| 20260501183335 | 15 | 326 | 0.0 | 0.0 | 0.00 | 15.60 | 0.00 | 69 | 998.8 |
| 20260501181817 | 15 | 254 | 0.0 | 0.0 | 0.00 | 15.60 | 0.00 | 68 | 998.4 |
| 20260501180342 | 15 | 250 | 0.0 | 1.6 | 0.00 | 15.60 | 0.00 | 68 | 997.9 |
| 20260501174835 | 15 | 255 | 0.0 | 1.6 | 0.00 | 15.80 | 0.00 | 68 | 997.8 |
| 20260501173340 | 15 | 244 | 0.0 | 1.6 | 0.00 | 15.80 | 0.00 | 68 | 997.4 |
| 20260501171823 | 15 | 169 | 0.0 | 3.2 | 0.00 | 15.80 | 0.00 | 68 | 997.1 |
| 20260501170331 | 15 | 171 | 0.0 | 3.2 | 0.00 | 15.80 | 0.00 | 69 | 996.9 |
| 20260501164820 | 15 | 178 | 0.0 | 1.6 | 0.00 | 16.31 | 0.00 | 70 | 996.9 |
| 20260501163327 | 15 | 285 | 0.0 | 0.0 | 0.00 | 16.31 | 0.00 | 73 | 996.8 |
| 20260501161837 | 15 | 149 | 0.0 | 0.0 | 0.00 | 16.31 | 0.00 | 75 | 996.9 |